Location: Unspecified
(38.9820°N, 94.4650°W)
Time: 12:17:37
(UTC-05:00)

CZ-3 Stage 3 - Visible Passes

Search period start: 21 September 2018 00:00
Search period end: 01 October 2018 00:00
Orbit: 368 x 34824 km, 30.5° (Epoch: 20 September)

Date Brightness Start Highest point End Pass type
(mag) Time Alt. Az. Time Alt. Az. Time Alt. Az.
21 Sep 6.7 19:13:24 10° SW 22:04:49 56° SW 04:32:37 10° SSE visible
22 Sep 7.6 15:39:18 10° SSE 23:04:14 77° SSE 00:54:00 10° ESE visible
23 Sep 8.5 15:07:49 10° E 19:13:42 33° E 20:55:44 10° ENE visible
23 Sep 7.0 23:40:34 10° W 00:55:44 15° W 03:04:35 10° WNW visible
24 Sep 6.7 19:02:51 10° SW 21:53:08 57° SW 04:22:27 10° SSE visible
25 Sep 7.6 15:28:26 10° SSE 22:51:07 77° SE 00:43:51 10° ESE visible
26 Sep 8.5 14:55:18 10° E 19:02:17 33° E 20:45:08 10° ENE visible
26 Sep 7.0 23:27:48 10° W 00:45:43 15° W 03:03:12 10° WNW visible
27 Sep 6.7 18:52:17 10° SW 21:41:27 58° SW 04:12:15 10° SSE visible
28 Sep 7.6 15:17:36 10° SSE 22:38:06 77° SE 00:33:40 10° ESE visible
29 Sep 8.5 14:42:53 10° E 18:50:53 33° E 20:34:31 10° ENE visible
29 Sep 7.1 23:15:12 10° W 00:35:41 16° W 03:01:43 10° WNW visible
